Time,TemperatureF,DewpointF,PressureIn,WindDirection,WindDirectionDegrees,WindSpeedMPH,WindSpeedGustMPH,Humidity,HourlyPrecipIn,Conditions,Clouds,dailyrainin,SoftwareType,DateUTC
2013-01-02 12:28:00,25.7,9.7,-100.00,North,-999,-999.0,-999.0,50,-99.99,,,0.04,meteohub,2013-01-02 17:28:00,
2013-01-02 12:29:00,25.7,9.7,-100.00,North,-999,-999.0,-999.0,50,-99.99,,,0.04,meteohub,2013-01-02 17:29:00,
2013-01-02 12:30:00,25.7,9.7,-100.00,North,-999,-999.0,-999.0,50,-99.99,,,0.04,meteohub,2013-01-02 17:30:00,
2013-01-02 12:35:00,25.9,9.9,-100.00,NE,45,4.0,4.0,50,-99.99,,,0.04,meteohub,2013-01-02 17:35:00,
2013-01-02 12:40:00,25.9,9.9,-100.00,West,270,0.0,4.0,50,-99.99,,,0.04,meteohub,2013-01-02 17:40:00,
2013-01-02 12:46:00,26.1,10.0,-100.00,West,270,3.0,4.0,50,-99.99,,,0.04,meteohub,2013-01-02 17:46:00,
2013-01-02 12:51:00,26.1,10.0,-100.00,WSW,248,2.0,2.0,50,0.00,,,0.00,meteohub,2013-01-02 17:51:00,
2013-01-02 12:56:00,26.1,10.0,29.29,WSW,248,2.0,3.0,50,0.00,,,0.00,meteohub,2013-01-02 17:56:00,
2013-01-02 13:10:00,26.2,9.7,29.29,West,270,3.0,-999.0,49,0.00,,,0.00,meteohub,2013-01-02 18:10:00,
2013-01-02 13:15:00,26.2,9.7,29.29,West,270,3.0,-999.0,49,0.00,,,0.00,meteohub,2013-01-02 18:15:00,
2013-01-02 13:20:00,26.4,9.5,29.29,West,270,6.0,6.0,48,0.00,,,0.00,meteohub,2013-01-02 18:20:00,
2013-01-02 13:25:00,26.4,9.0,29.29,NW,315,4.0,6.0,47,0.00,,,0.00,meteohub,2013-01-02 18:25:00,
2013-01-02 14:12:00,26.1,9.5,29.29,West,270,4.0,4.0,49,0.00,,,0.00,meteohub,2013-01-02 19:12:00,
2013-01-02 14:17:00,26.1,9.5,29.29,West,270,1.0,4.0,49,0.00,,,0.00,meteohub,2013-01-02 19:17:00,
2013-01-02 14:22:00,26.1,9.5,29.29,WNW,292,1.0,4.0,49,0.00,,,0.00,meteohub,2013-01-02 19:22:00,
2013-01-02 14:27:00,26.1,9.5,29.29,WNW,292,1.0,4.0,49,0.00,,,0.00,meteohub,2013-01-02 19:27:00,
2013-01-02 14:32:00,26.1,10.0,29.29,North,0,0.0,1.0,50,0.00,,,0.00,meteohub,2013-01-02 19:32:00,
2013-01-02 14:37:00,26.1,10.0,29.29,WSW,248,20.0,20.0,50,0.00,,,0.00,meteohub,2013-01-02 19:37:00,
2013-01-02 14:42:00,25.9,10.2,29.29,NW,315,0.0,3.0,51,0.00,,,0.00,meteohub,2013-01-02 19:42:00,
2013-01-02 14:47:00,25.9,10.2,29.29,NW,315,0.0,20.0,51,0.00,,,0.00,meteohub,2013-01-02 19:47:00,
2013-01-02 14:52:00,26.1,10.4,29.29,West,270,4.0,20.0,51,0.00,,,0.00,meteohub,2013-01-02 19:52:00,
2013-01-02 14:57:00,25.5,9.9,29.29,NW,315,4.0,4.0,51,0.00,,,0.00,meteohub,2013-01-02 19:57:00,
2013-01-02 15:02:00,25.5,9.9,29.29,NW,315,4.0,4.0,51,0.00,,,0.00,meteohub,2013-01-02 20:02:00,
2013-01-02 15:14:00,25.7,10.6,29.29,West,270,0.0,4.0,52,0.00,,,0.00,meteohub,2013-01-02 20:14:00,
2013-01-02 15:19:00,25.7,10.6,29.29,WSW,248,1.0,0.0,52,0.00,,,0.00,meteohub,2013-01-02 20:19:00,
2013-01-02 15:40:00,25.5,9.9,29.29,WSW,248,2.0,2.0,51,0.00,,,0.00,meteohub,2013-01-02 20:40:00,
2013-01-02 15:45:00,25.7,10.0,29.29,West,270,0.0,2.0,51,0.00,,,0.00,meteohub,2013-01-02 20:45:00,
2013-01-02 15:50:00,25.7,10.0,29.29,South,180,0.0,2.0,51,0.00,,,0.00,meteohub,2013-01-02 20:50:00,
2013-01-02 16:58:00,24.8,9.7,29.29,WSW,248,0.0,-999.0,52,0.00,,,0.00,meteohub,2013-01-02 21:58:00,
2013-01-02 17:03:00,24.6,9.5,29.29,SW,225,0.0,2.0,52,0.00,,,0.00,meteohub,2013-01-02 22:03:00,
2013-01-02 17:08:00,24.6,9.5,29.29,SW,225,0.0,2.0,52,0.00,,,0.00,meteohub,2013-01-02 22:08:00,
2013-01-02 17:17:00,24.4,9.9,29.29,SSW,202,0.0,2.0,53,0.00,,,0.00,meteohub,2013-01-02 22:17:00,
2013-01-02 17:22:00,24.4,9.9,29.29,SSW,202,0.0,0.0,53,0.00,,,0.00,meteohub,2013-01-02 22:22:00,
2013-01-02 17:27:00,24.4,9.9,29.29,SW,225,0.0,2.0,53,0.00,,,0.00,meteohub,2013-01-02 22:27:00,
2013-01-02 17:32:00,24.4,9.9,29.29,SW,225,0.0,2.0,53,0.00,,,0.00,meteohub,2013-01-02 22:32:00,
2013-01-02 18:15:00,24.4,10.2,29.29,West,270,3.0,-999.0,54,0.00,,,0.00,meteohub,2013-01-02 23:15:00,
2013-01-02 18:20:00,24.4,10.2,29.29,West,270,3.0,-999.0,54,0.00,,,0.00,meteohub,2013-01-02 23:20:00,
2013-01-02 18:35:00,24.4,10.6,29.29,SW,225,3.0,3.0,55,-99.99,,,0.00,meteohub,2013-01-02 23:35:00,
2013-01-02 18:40:00,24.4,10.6,29.29,SSW,202,1.0,3.0,55,-99.99,,,0.00,meteohub,2013-01-02 23:40:00,
2013-01-02 19:22:00,24.1,11.1,29.32,SSE,158,0.0,0.0,57,-99.99,,,0.00,meteohub,2013-01-03 00:22:00,
2013-01-02 19:27:00,24.1,11.5,29.32,SW,225,4.0,0.0,58,-99.99,,,0.00,meteohub,2013-01-03 00:27:00,
2013-01-02 19:32:00,23.9,11.7,29.32,SW,225,0.0,4.0,59,-99.99,,,0.00,meteohub,2013-01-03 00:32:00,
2013-01-02 19:37:00,23.9,11.7,29.32,SW,225,0.0,4.0,59,-99.99,,,0.00,meteohub,2013-01-03 00:37:00,
2013-01-02 19:43:00,23.7,12.2,-100.00,SW,225,2.0,4.0,61,-99.99,,,0.00,meteohub,2013-01-03 00:43:00,
2013-01-02 19:48:00,23.7,12.2,29.35,SSW,202,3.0,3.0,61,-99.99,,,0.00,meteohub,2013-01-03 00:48:00,
2013-01-02 20:17:00,23.5,12.7,29.35,SSW,202,1.0,3.0,63,-99.99,,,0.00,meteohub,2013-01-03 01:17:00,
2013-01-02 20:22:00,23.5,12.7,29.32,SW,225,2.0,2.0,63,-99.99,,,0.00,meteohub,2013-01-03 01:22:00,
2013-01-02 20:27:00,23.5,12.7,29.32,WSW,248,2.0,2.0,63,-99.99,,,0.00,meteohub,2013-01-03 01:27:00,
2013-01-02 20:53:00,23.4,12.6,29.32,SW,225,2.0,2.0,63,0.00,,,0.00,meteohub,2013-01-03 01:53:00,
2013-01-02 20:58:00,23.4,12.6,29.32,SW,225,2.0,4.0,63,0.00,,,0.00,meteohub,2013-01-03 01:58:00,
2013-01-02 21:03:00,23.4,12.6,29.32,SW,225,3.0,4.0,63,0.00,,,0.00,meteohub,2013-01-03 02:03:00,
2013-01-02 21:08:00,23.4,12.6,29.32,SW,225,3.0,3.0,63,0.00,,,0.00,meteohub,2013-01-03 02:08:00,
2013-01-02 22:01:00,23.0,13.1,29.29,SW,225,3.0,3.0,65,-99.99,,,0.00,meteohub,2013-01-03 03:01:00,
2013-01-02 22:06:00,23.0,12.7,29.29,SSW,202,2.0,3.0,64,-99.99,,,0.00,meteohub,2013-01-03 03:06:00,
2013-01-02 22:11:00,23.0,12.7,29.29,SSW,202,2.0,3.0,64,-99.99,,,0.00,meteohub,2013-01-03 03:11:00,
2013-01-02 22:16:00,22.8,12.6,29.26,SW,225,2.0,3.0,64,-99.99,,,0.00,meteohub,2013-01-03 03:16:00,
2013-01-02 22:21:00,22.8,12.6,29.26,SW,225,1.0,2.0,64,-99.99,,,0.00,meteohub,2013-01-03 03:21:00,
2013-01-02 22:27:00,22.8,12.9,29.26,SSW,202,3.0,3.0,65,-99.99,,,0.00,meteohub,2013-01-03 03:27:00,
2013-01-02 22:31:00,22.8,12.9,29.26,West,270,2.0,3.0,65,-99.99,,,0.00,meteohub,2013-01-03 03:31:00,
2013-01-02 22:37:00,22.8,12.9,29.26,West,270,2.0,3.0,65,-99.99,,,0.00,meteohub,2013-01-03 03:37:00,
2013-01-02 22:47:00,22.8,12.9,29.26,SW,225,2.0,-999.0,65,-99.99,,,0.00,meteohub,2013-01-03 03:47:00,
2013-01-02 22:52:00,22.8,13.1,29.26,SSW,202,2.0,2.0,66,-99.99,,,0.00,meteohub,2013-01-03 03:52:00,
2013-01-02 22:57:00,22.8,13.1,29.26,WSW,248,1.0,3.0,66,-99.99,,,0.00,meteohub,2013-01-03 03:57:00,
2013-01-02 23:02:00,22.8,12.9,29.26,SW,225,2.0,3.0,65,-99.99,,,0.00,meteohub,2013-01-03 04:02:00,
2013-01-02 23:07:00,22.8,12.9,29.26,SSW,202,2.0,2.0,65,-99.99,,,0.00,meteohub,2013-01-03 04:07:00,
2013-01-02 23:12:00,22.8,12.9,29.26,SW,225,2.0,4.0,65,0.00,,,0.00,meteohub,2013-01-03 04:12:00,
2013-01-02 23:17:00,22.8,13.1,29.29,SW,225,3.0,4.0,66,0.00,,,0.00,meteohub,2013-01-03 04:17:00,
2013-01-02 23:22:00,22.8,13.1,29.29,SW,225,2.0,4.0,66,0.00,,,0.00,meteohub,2013-01-03 04:22:00,
2013-01-02 23:28:00,22.8,13.1,29.29,SSE,158,2.0,4.0,66,0.00,,,0.00,meteohub,2013-01-03 04:28:00,
2013-01-02 23:33:00,22.6,12.7,29.29,SW,225,3.0,4.0,65,0.00,,,0.00,meteohub,2013-01-03 04:33:00,
2013-01-02 23:38:00,22.6,12.7,29.29,SW,225,2.0,4.0,65,0.00,,,0.00,meteohub,2013-01-03 04:38:00,
2013-01-02 23:43:00,22.6,12.7,29.29,SSW,202,2.0,4.0,65,0.00,,,0.00,meteohub,2013-01-03 04:43:00,
2013-01-02 23:48:00,22.6,13.1,29.26,SW,225,3.0,4.0,66,0.00,,,0.00,meteohub,2013-01-03 04:48:00,
2013-01-02 23:53:00,22.6,13.1,29.26,WSW,248,1.0,4.0,66,0.00,,,0.00,meteohub,2013-01-03 04:53:00,
2013-01-02 23:58:00,22.6,13.1,29.26,WSW,248,3.0,4.0,66,0.00,,,0.00,meteohub,2013-01-03 04:58:00,